| time (UTC) | temp C | wind direction | speed KPH | gust KPH | rain 1hr cm | rain 24hr cm | rain mn cm | humidity % | barometer mb |
| 20260831110124 | 18 | 140 | 0.0 | 4.8 | 0.00 | 0.10 | 0.00 | 98 | 1013.0 |
| 20260831105529 | 18 | 151 | 0.0 | 4.8 | 0.00 | 0.10 | 0.00 | 98 | 1013.1 |
| 20260831105029 | 18 | 130 | 0.0 | 4.8 | 0.00 | 0.10 | 0.00 | 98 | 1013.1 |
| 20260831104527 | 18 | 116 | 0.0 | 4.8 | 0.00 | 0.10 | 0.00 | 98 | 1013.2 |
| 20260831104027 | 18 | 131 | 0.0 | 3.2 | 0.00 | 0.10 | 0.00 | 98 | 1013.4 |
| 20260831103527 | 18 | 142 | 0.0 | 3.2 | 0.00 | 0.10 | 0.00 | 98 | 1013.4 |
| 20260831103026 | 18 | 117 | 1.6 | 4.8 | 0.00 | 0.10 | 0.00 | 98 | 1013.4 |
| 20260831102520 | 18 | 106 | 1.6 | 4.8 | 0.00 | 0.10 | 0.00 | 98 | 1013.3 |
| 20260831102020 | 18 | 103 | 0.0 | 3.2 | 0.00 | 0.10 | 0.00 | 98 | 1013.5 |
| 20260831101521 | 18 | 100 | 0.0 | 3.2 | 0.00 | 0.10 | 0.00 | 98 | 1013.6 |
| 20260831101242 | 18 | 135 | 1.6 | 6.4 | 0.00 | 0.10 | 0.00 | 98 | 1013.5 |
| 20260831100018 | 18 | 166 | 1.6 | 6.4 | 0.00 | 0.10 | 0.00 | 98 | 1013.5 |
| 20260831095512 | 18 | 200 | 1.6 | 6.4 | 0.00 | 0.10 | 0.00 | 98 | 1013.7 |
| 20260831095011 | 18 | 147 | 3.2 | 6.4 | 0.00 | 0.10 | 0.00 | 98 | 1013.5 |
| 20260831094511 | 18 | 97 | 3.2 | 6.4 | 0.00 | 0.10 | 0.00 | 98 | 1013.6 |
| 20260831094012 | 18 | 123 | 0.0 | 6.4 | 0.00 | 0.10 | 0.00 | 98 | 1013.8 |
| 20260831093511 | 18 | 168 | 1.6 | 4.8 | 0.00 | 0.10 | 0.00 | 98 | 1013.8 |
| 20260831093011 | 18 | 157 | 1.6 | 6.4 | 0.00 | 0.10 | 0.00 | 98 | 1013.8 |
| 20260831092735 | 18 | 157 | 3.2 | 6.4 | 0.00 | 0.10 | 0.00 | 98 | 1014.0 |
| 20260831092011 | 18 | 172 | 1.6 | 4.8 | 0.00 | 0.10 | 0.00 | 98 | 1014.0 |
| 20260831091510 | 18 | 152 | 1.6 | 4.8 | 0.00 | 0.10 | 0.00 | 98 | 1013.9 |
| 20260831091012 | 18 | 162 | 1.6 | 4.8 | 0.00 | 0.10 | 0.00 | 98 | 1014.0 |
| 20260831090511 | 18 | 169 | 0.0 | 4.8 | 0.00 | 0.10 | 0.00 | 98 | 1014.1 |
| 20260831090010 | 18 | 189 | 1.6 | 3.2 | 0.00 | 0.10 | 0.00 | 98 | 1014.1 |
| 20260831085510 | 18 | 100 | 0.0 | 3.2 | 0.00 | 0.10 | 0.00 | 98 | 1014.3 |
| 20260831085010 | 18 | 97 | 0.0 | 3.2 | 0.00 | 0.10 | 0.00 | 98 | 1014.1 |
| 20260831084510 | 18 | 82 | 3.2 | 3.2 | 0.00 | 0.10 | 0.00 | 98 | 1014.0 |
| 20260831084008 | 18 | 99 | 0.0 | 1.6 | 0.00 | 0.10 | 0.00 | 98 | 1014.0 |
| 20260831083506 | 18 | 103 | 0.0 | 3.2 | 0.00 | 0.10 | 0.00 | 98 | 1013.9 |
| 20260831083006 | 18 | 100 | 1.6 | 4.8 | 0.00 | 0.10 | 0.00 | 98 | 1013.8 |
| 20260831082505 | 18 | 111 | 1.6 | 4.8 | 0.00 | 0.10 | 0.00 | 98 | 1013.8 |
| 20260831082008 | 18 | 114 | 1.6 | 4.8 | 0.00 | 0.10 | 0.00 | 98 | 1013.9 |
| 20260831081504 | 18 | 113 | 1.6 | 4.8 | 0.00 | 0.10 | 0.00 | 98 | 1013.8 |
| 20260831081004 | 18 | 123 | 1.6 | 4.8 | 0.00 | 0.10 | 0.00 | 98 | 1013.8 |
| 20260831080500 | 18 | 89 | 3.2 | 4.8 | 0.00 | 0.10 | 0.00 | 98 | 1013.8 |
| 20260831075959 | 18 | 145 | 1.6 | 4.8 | 0.00 | 0.10 | 0.00 | 98 | 1013.7 |
| 20260831075459 | 18 | 127 | 1.6 | 4.8 | 0.00 | 0.10 | 0.00 | 98 | 1013.7 |
| 20260831074958 | 18 | 144 | 1.6 | 6.4 | 0.00 | 0.10 | 0.00 | 98 | 1013.5 |
| 20260831074457 | 18 | 86 | 3.2 | 6.4 | 0.00 | 0.10 | 0.00 | 98 | 1013.3 |
| 20260831073955 | 18 | 102 | 1.6 | 4.8 | 0.00 | 0.10 | 0.00 | 98 | 1013.3 |
| 20260831073723 | 18 | 95 | 3.2 | 4.8 | 0.00 | 0.10 | 0.00 | 98 | 1013.4 |
| 20260831072951 | 18 | 86 | 3.2 | 4.8 | 0.00 | 0.10 | 0.00 | 98 | 1013.4 |
| 20260831072451 | 18 | 100 | 3.2 | 4.8 | 0.00 | 0.10 | 0.00 | 98 | 1013.4 |
| 20260831071951 | 18 | 135 | 0.0 | 8.0 | 0.00 | 0.10 | 0.00 | 98 | 1013.4 |
| 20260831071717 | 18 | 114 | 3.2 | 8.0 | 0.00 | 0.13 | 0.00 | 98 | 1013.4 |
| 20260831070950 | 18 | 76 | 4.8 | 8.0 | 0.00 | 0.13 | 0.00 | 98 | 1013.5 |
| 20260831070452 | 18 | 86 | 4.8 | 8.0 | 0.00 | 0.15 | 0.00 | 98 | 1013.6 |
| 20260831065953 | 18 | 99 | 3.2 | 11.3 | 0.00 | 0.15 | 0.00 | 98 | 1013.7 |
| 20260831065449 | 18 | 86 | 6.4 | 11.3 | 0.00 | 0.15 | 0.00 | 97 | 1013.7 |
| 20260831064951 | 18 | 85 | 6.4 | 11.3 | 0.00 | 0.15 | 0.00 | 98 | 1013.8 |
| 20260831064455 | 18 | 97 | 3.2 | 8.0 | 0.00 | 0.15 | 0.00 | 98 | 1013.9 |
| 20260831063948 | 18 | 87 | 4.8 | 8.0 | 0.00 | 0.18 | 0.00 | 98 | 1013.9 |
| 20260831063446 | 18 | 95 | 4.8 | 6.4 | 0.00 | 0.18 | 0.00 | 98 | 1014.0 |
| 20260831062946 | 18 | 103 | 3.2 | 6.4 | 0.00 | 0.18 | 0.00 | 98 | 1014.1 |
| 20260831062448 | 18 | 72 | 3.2 | 8.0 | 0.00 | 0.20 | 0.00 | 98 | 1014.1 |
| 20260831061945 | 18 | 87 | 4.8 | 8.0 | 0.00 | 0.20 | 0.00 | 97 | 1014.0 |
| 20260831061445 | 18 | 102 | 3.2 | 4.8 | 0.00 | 0.23 | 0.00 | 97 | 1014.0 |
| 20260831060945 | 19 | 97 | 3.2 | 4.8 | 0.00 | 0.25 | 0.00 | 98 | 1014.1 |
| 20260831060444 | 19 | 121 | 1.6 | 4.8 | 0.00 | 0.25 | 0.00 | 98 | 1014.1 |
| 20260831060210 | 19 | 93 | 0.0 | 6.4 | 0.00 | 0.28 | 0.00 | 98 | 1014.1 |
| 20260831055443 | 19 | 102 | 3.2 | 6.4 | 0.00 | 0.28 | 0.00 | 98 | 1014.1 |
| 20260831054943 | 19 | 111 | 1.6 | 6.4 | 0.00 | 0.28 | 0.00 | 98 | 1014.1 |
| 20260831054440 | 19 | 114 | 1.6 | 6.4 | 0.00 | 0.28 | 0.00 | 98 | 1014.1 |
| 20260831053939 | 19 | 118 | 3.2 | 6.4 | 0.00 | 0.28 | 0.00 | 97 | 1014.0 |
| 20260831053439 | 19 | 89 | 1.6 | 4.8 | 0.00 | 0.28 | 0.00 | 97 | 1014.0 |
| 20260831052940 | 19 | 131 | 0.0 | 4.8 | 0.00 | 0.28 | 0.00 | 98 | 1014.1 |
| 20260831052658 | 19 | 134 | 0.0 | 4.8 | 0.00 | 0.28 | 0.00 | 97 | 1014.1 |
| 20260831051935 | 19 | 110 | 1.6 | 6.4 | 0.00 | 0.28 | 0.00 | 97 | 1014.1 |
| 20260831051435 | 18 | 90 | 3.2 | 6.4 | 0.00 | 0.28 | 0.00 | 97 | 1014.2 |
| 20260831050935 | 18 | 114 | 3.2 | 6.4 | 0.00 | 0.28 | 0.00 | 97 | 1014.2 |
| 20260831050435 | 18 | 141 | 1.6 | 4.8 | 0.00 | 0.28 | 0.00 | 97 | 1014.2 |
| 20260831045934 | 18 | 140 | 0.0 | 4.8 | 0.00 | 0.30 | 0.00 | 97 | 1014.4 |
| 20260831045433 | 18 | 137 | 1.6 | 4.8 | 0.00 | 0.30 | 0.00 | 97 | 1014.2 |
| 20260831045205 | 18 | 123 | 0.0 | 3.2 | 0.00 | 0.30 | 0.00 | 97 | 1014.3 |
| 20260831044656 | 18 | 157 | 0.0 | 4.8 | 0.00 | 0.30 | 0.00 | 97 | 1014.5 |
| 20260831043936 | 18 | 155 | 1.6 | 4.8 | 0.00 | 0.30 | 0.00 | 97 | 1014.5 |
| 20260831043659 | 18 | 90 | 1.6 | 6.4 | 0.00 | 0.30 | 0.00 | 97 | 1014.3 |
| 20260831042933 | 18 | 106 | 1.6 | 6.4 | 0.00 | 0.30 | 0.00 | 97 | 1014.4 |
| 20260831042433 | 18 | 90 | 3.2 | 6.4 | 0.00 | 0.30 | 0.00 | 97 | 1014.3 |
| 20260831041932 | 18 | 116 | 1.6 | 6.4 | 0.00 | 0.30 | 0.00 | 97 | 1014.2 |
| 20260831041658 | 18 | 86 | 3.2 | 6.4 | 0.00 | 0.30 | 0.00 | 97 | 1014.1 |
| 20260831040932 | 18 | 87 | 1.6 | 4.8 | 0.00 | 0.33 | 0.00 | 97 | 1014.2 |
| 20260831040434 | 19 | 106 | 0.0 | 3.2 | 0.00 | 0.33 | 0.00 | 97 | 1014.2 |
| 20260831040200 | 19 | 106 | 1.6 | 3.2 | 0.00 | 0.33 | 0.33 | 97 | 1014.3 |
| 20260831035702 | 18 | 114 | 0.0 | 3.2 | 0.00 | 0.33 | 0.33 | 97 | 1014.4 |
| 20260831034935 | 18 | 123 | 0.0 | 4.8 | 0.00 | 0.33 | 0.33 | 97 | 1014.4 |
| 20260831034435 | 19 | 99 | 1.6 | 4.8 | 0.00 | 0.33 | 0.33 | 97 | 1014.5 |
| 20260831033934 | 19 | 78 | 1.6 | 4.8 | 0.00 | 0.33 | 0.33 | 97 | 1014.5 |
| 20260831033437 | 19 | 85 | 1.6 | 4.8 | 0.00 | 0.33 | 0.33 | 97 | 1014.5 |
| 20260831032435 | 19 | 117 | 1.6 | 8.0 | 0.00 | 0.33 | 0.33 | 97 | 1014.5 |
| 20260831032201 | 19 | 134 | 0.0 | 8.0 | 0.00 | 0.33 | 0.33 | 97 | 1014.4 |
| 20260831031435 | 19 | 185 | 0.0 | 4.8 | 0.00 | 0.33 | 0.33 | 97 | 1014.3 |
| 20260831030933 | 18 | 162 | 1.6 | 6.4 | 0.00 | 0.33 | 0.33 | 97 | 1014.4 |
| 20260831030656 | 18 | 128 | 1.6 | 6.4 | 0.00 | 0.33 | 0.33 | 97 | 1014.4 |
| 20260831025929 | 18 | 140 | 3.2 | 6.4 | 0.00 | 0.33 | 0.33 | 97 | 1014.3 |
| 20260831025429 | 18 | 176 | 1.6 | 4.8 | 0.00 | 0.33 | 0.33 | 97 | 1014.3 |
| 20260831024929 | 18 | 171 | 1.6 | 4.8 | 0.00 | 0.33 | 0.33 | 97 | 1014.4 |
| 20260831024426 | 18 | 130 | 1.6 | 9.7 | 0.00 | 0.33 | 0.33 | 97 | 1014.5 |
| 20260831023926 | 18 | 95 | 4.8 | 9.7 | 0.00 | 0.33 | 0.33 | 97 | 1014.4 |
| 20260831023427 | 18 | 82 | 1.6 | 4.8 | 0.00 | 0.33 | 0.33 | 97 | 1014.3 |
| 20260831022926 | 18 | 71 | 1.6 | 3.2 | 0.00 | 0.33 | 0.33 | 97 | 1014.4 |
| 20260831022427 | 18 | 85 | 1.6 | 3.2 | 0.00 | 0.33 | 0.33 | 97 | 1014.4 |
| 20260831021927 | 18 | 123 | 0.0 | 4.8 | 0.00 | 0.33 | 0.33 | 97 | 1014.4 |
| 20260831021651 | 18 | 165 | 1.6 | 8.0 | 0.00 | 0.33 | 0.33 | 97 | 1014.4 |
| 20260831021158 | 18 | 130 | 3.2 | 8.0 | 0.00 | 0.33 | 0.33 | 97 | 1014.3 |
| 20260831020422 | 18 | 68 | 1.6 | 8.0 | 0.00 | 0.33 | 0.33 | 97 | 1014.4 |
| 20260831015921 | 18 | 86 | 4.8 | 9.7 | 0.00 | 0.33 | 0.33 | 97 | 1014.4 |
| 20260831015420 | 18 | 87 | 3.2 | 9.7 | 0.00 | 0.33 | 0.33 | 97 | 1014.4 |
| 20260831015148 | 18 | 111 | 4.8 | 8.0 | 0.00 | 0.33 | 0.33 | 96 | 1014.4 |
| 20260831014418 | 18 | 65 | 3.2 | 4.8 | 0.00 | 0.33 | 0.33 | 97 | 1014.4 |
| 20260831013921 | 18 | 80 | 0.0 | 4.8 | 0.00 | 0.33 | 0.33 | 97 | 1014.3 |
| 20260831013416 | 18 | 93 | 0.0 | 6.4 | 0.00 | 0.33 | 0.33 | 96 | 1014.2 |
| 20260831012916 | 18 | 102 | 1.6 | 6.4 | 0.00 | 0.33 | 0.33 | 96 | 1014.0 |
| 20260831012414 | 18 | 103 | 3.2 | 8.0 | 0.00 | 0.33 | 0.33 | 96 | 1014.0 |
| 20260831011913 | 18 | 128 | 1.6 | 8.0 | 0.00 | 0.33 | 0.33 | 96 | 1014.0 |
| 20260831011412 | 18 | 120 | 3.2 | 6.4 | 0.00 | 0.33 | 0.33 | 96 | 1014.2 |
| 20260831011137 | 18 | 92 | 3.2 | 4.8 | 0.00 | 0.33 | 0.33 | 96 | 1014.0 |
| 20260831010639 | 18 | 102 | 1.6 | 3.2 | 0.00 | 0.33 | 0.33 | 96 | 1014.1 |
| 20260831005912 | 18 | 140 | 0.0 | 1.6 | 0.00 | 0.33 | 0.33 | 96 | 1014.2 |
| 20260831004911 | 18 | 87 | 0.0 | 9.7 | 0.00 | 0.33 | 0.33 | 96 | 1014.0 |
| 20260831004410 | 18 | 117 | 3.2 | 9.7 | 0.00 | 0.33 | 0.33 | 96 | 1013.7 |
| 20260831003410 | 18 | 96 | 3.2 | 8.0 | 0.00 | 0.33 | 0.33 | 96 | 1013.9 |
| 20260831002909 | 18 | 151 | 3.2 | 8.0 | 0.00 | 0.33 | 0.33 | 96 | 1013.8 |
| 20260831002409 | 18 | 89 | 4.8 | 8.0 | 0.00 | 0.33 | 0.33 | 96 | 1013.7 |
| 20260831002140 | 18 | 93 | 4.8 | 8.0 | 0.00 | 0.33 | 0.33 | 96 | 1013.7 |
| 20260831001406 | 18 | 69 | 3.2 | 8.0 | 0.00 | 0.33 | 0.33 | 96 | 1013.6 |
| 20260831000906 | 18 | 117 | 4.8 | 9.7 | 0.00 | 0.33 | 0.33 | 95 | 1013.6 |
| 20260831000405 | 19 | 128 | 4.8 | 9.7 | 0.00 | 0.33 | 0.33 | 95 | 1013.6 |
| 20260830235905 | 19 | 73 | 4.8 | 9.7 | 0.00 | 0.33 | 0.33 | 95 | 1013.6 |
| 20260830235404 | 19 | 102 | 4.8 | 9.7 | 0.00 | 0.33 | 0.33 | 95 | 1013.5 |
| 20260830234905 | 19 | 142 | 3.2 | 11.3 | 0.00 | 0.33 | 0.33 | 95 | 1013.6 |
| 20260830234629 | 19 | 97 | 6.4 | 11.3 | 0.00 | 0.33 | 0.33 | 95 | 1013.6 |
| 20260830233905 | 19 | 138 | 3.2 | 9.7 | 0.00 | 0.33 | 0.33 | 95 | 1013.5 |
| 20260830233405 | 19 | 116 | 1.6 | 9.7 | 0.00 | 0.33 | 0.33 | 94 | 1013.7 |
| 20260830232909 | 19 | 100 | 4.8 | 9.7 | 0.00 | 0.33 | 0.33 | 94 | 1013.6 |
| 20260830232405 | 19 | 89 | 3.2 | 8.0 | 0.00 | 0.33 | 0.33 | 94 | 1013.8 |
| 20260830231904 | 19 | 80 | 3.2 | 6.4 | 0.00 | 0.33 | 0.33 | 94 | 1014.0 |
| 20260830231404 | 19 | 95 | 1.6 | 9.7 | 0.00 | 0.33 | 0.33 | 94 | 1014.1 |
| 20260830230903 | 19 | 80 | 1.6 | 9.7 | 0.00 | 0.33 | 0.33 | 94 | 1014.0 |
| 20260830230630 | 20 | 55 | 4.8 | 6.4 | 0.00 | 0.33 | 0.33 | 94 | 1014.1 |
| 20260830225904 | 20 | 137 | 1.6 | 8.0 | 0.00 | 0.33 | 0.33 | 95 | 1014.2 |
| 20260830225403 | 20 | 114 | 6.4 | 8.0 | 0.00 | 0.33 | 0.33 | 95 | 1014.2 |
| 20260830224903 | 20 | 71 | 3.2 | 6.4 | 0.00 | 0.33 | 0.33 | 95 | 1014.2 |
| 20260830224403 | 20 | 90 | 1.6 | 6.4 | 0.00 | 0.33 | 0.33 | 95 | 1014.2 |
| 20260830223903 | 20 | 120 | 3.2 | 6.4 | 0.00 | 0.33 | 0.33 | 95 | 1014.2 |
| 20260830223403 | 19 | 126 | 3.2 | 6.4 | 0.00 | 0.33 | 0.33 | 95 | 1014.3 |
| 20260830222901 | 19 | 89 | 3.2 | 6.4 | 0.00 | 0.33 | 0.33 | 95 | 1014.3 |
| 20260830222402 | 19 | 85 | 3.2 | 6.4 | 0.00 | 0.33 | 0.33 | 95 | 1014.3 |
| 20260830221900 | 19 | 86 | 1.6 | 6.4 | 0.00 | 0.33 | 0.33 | 95 | 1014.4 |
| 20260830221358 | 19 | 86 | 3.2 | 6.4 | 0.00 | 0.33 | 0.33 | 95 | 1014.3 |
| 20260830220856 | 19 | 117 | 3.2 | 6.4 | 0.00 | 0.33 | 0.33 | 95 | 1014.3 |
| 20260830220356 | 19 | 113 | 0.0 | 3.2 | 0.00 | 0.33 | 0.33 | 95 | 1014.3 |
| 20260830220124 | 19 | 123 | 1.6 | 4.8 | 0.00 | 0.33 | 0.33 | 95 | 1014.3 |
| 20260830215358 | 19 | 89 | 1.6 | 8.0 | 0.00 | 0.33 | 0.33 | 95 | 1014.3 |
| 20260830214856 | 19 | 127 | 1.6 | 9.7 | 0.00 | 0.33 | 0.33 | 95 | 1014.3 |
| 20260830213856 | 19 | 103 | 4.8 | 14.5 | 0.00 | 0.33 | 0.33 | 94 | 1014.1 |
| 20260830213354 | 19 | 89 | 6.4 | 14.5 | 0.00 | 0.33 | 0.33 | 94 | 1014.0 |
| 20260830212855 | 19 | 102 | 8.0 | 14.5 | 0.00 | 0.33 | 0.33 | 94 | 1013.9 |
| 20260830212354 | 20 | 85 | 4.8 | 14.5 | 0.00 | 0.33 | 0.33 | 93 | 1013.9 |
| 20260830211853 | 20 | 116 | 4.8 | 9.7 | 0.00 | 0.33 | 0.33 | 93 | 1014.0 |
| 20260830211353 | 20 | 104 | 6.4 | 9.7 | 0.00 | 0.33 | 0.33 | 93 | 1013.9 |
| 20260830210851 | 20 | 80 | 4.8 | 11.3 | 0.00 | 0.33 | 0.33 | 93 | 1013.9 |
| 20260830210351 | 20 | 110 | 3.2 | 11.3 | 0.00 | 0.33 | 0.33 | 92 | 1013.9 |
| 20260830205852 | 20 | 106 | 3.2 | 9.7 | 0.00 | 0.33 | 0.33 | 92 | 1013.9 |
| 20260830205349 | 20 | 99 | 6.4 | 9.7 | 0.00 | 0.33 | 0.33 | 91 | 1013.9 |
| 20260830204852 | 20 | 104 | 4.8 | 9.7 | 0.00 | 0.33 | 0.33 | 92 | 1013.8 |
| 20260830204612 | 21 | 130 | 4.8 | 8.0 | 0.00 | 0.33 | 0.33 | 91 | 1013.8 |
| 20260830203849 | 21 | 40 | 3.2 | 8.0 | 0.00 | 0.33 | 0.33 | 91 | 1013.8 |
| 20260830203616 | 21 | 85 | 3.2 | 9.7 | 0.00 | 0.33 | 0.33 | 91 | 1013.9 |
| 20260830202953 | 21 | 76 | 4.8 | 9.7 | 0.00 | 0.33 | 0.33 | 91 | 1013.9 |
| 20260830202348 | 21 | 71 | 4.8 | 11.3 | 0.00 | 0.33 | 0.33 | 91 | 1013.8 |
| 20260830201848 | 21 | 78 | 6.4 | 11.3 | 0.00 | 0.33 | 0.33 | 90 | 1013.8 |
| 20260830201348 | 21 | 83 | 4.8 | 9.7 | 0.00 | 0.33 | 0.33 | 90 | 1013.9 |
| 20260830200846 | 21 | 95 | 3.2 | 8.0 | 0.00 | 0.33 | 0.33 | 90 | 1013.8 |
| 20260830200346 | 21 | 104 | 6.4 | 8.0 | 0.00 | 0.33 | 0.33 | 91 | 1013.7 |
| 20260830195846 | 21 | 75 | 4.8 | 8.0 | 0.00 | 0.33 | 0.33 | 91 | 1013.7 |
| 20260830195346 | 21 | 59 | 4.8 | 8.0 | 0.00 | 0.33 | 0.33 | 90 | 1013.8 |
| 20260830194844 | 21 | 58 | 1.6 | 6.4 | 0.00 | 0.33 | 0.33 | 91 | 1013.8 |
| 20260830194346 | 21 | 102 | 1.6 | 8.0 | 0.00 | 0.33 | 0.33 | 90 | 1013.8 |
| 20260830193848 | 21 | 100 | 3.2 | 8.0 | 0.00 | 0.33 | 0.33 | 91 | 1013.9 |
| 20260830193348 | 21 | 110 | 1.6 | 4.8 | 0.00 | 0.33 | 0.33 | 91 | 1013.9 |
| 20260830192845 | 20 | 99 | 1.6 | 4.8 | 0.00 | 0.33 | 0.33 | 91 | 1014.0 |
| 20260830192346 | 20 | 162 | 0.0 | 9.7 | 0.00 | 0.33 | 0.33 | 91 | 1014.0 |
| 20260830191845 | 20 | 165 | 1.6 | 9.7 | 0.00 | 0.33 | 0.33 | 91 | 1013.9 |
| 20260830191348 | 20 | 164 | 1.6 | 4.8 | 0.00 | 0.33 | 0.33 | 91 | 1014.0 |
| 20260830190845 | 20 | 185 | 0.0 | 4.8 | 0.00 | 0.33 | 0.33 | 91 | 1014.1 |
| 20260830190345 | 20 | 152 | 3.2 | 6.4 | 0.00 | 0.33 | 0.33 | 91 | 1014.1 |
| 20260830190105 | 20 | 104 | 3.2 | 6.4 | 0.00 | 0.33 | 0.33 | 90 | 1014.1 |
| 20260830185345 | 20 | 149 | 1.6 | 6.4 | 0.00 | 0.33 | 0.33 | 91 | 1014.1 |
| 20260830184844 | 20 | 127 | 0.0 | 6.4 | 0.00 | 0.33 | 0.33 | 91 | 1014.1 |
| 20260830184345 | 20 | 134 | 3.2 | 4.8 | 0.00 | 0.33 | 0.33 | 91 | 1014.2 |
| 20260830183843 | 20 | 147 | 0.0 | 4.8 | 0.00 | 0.33 | 0.33 | 91 | 1014.3 |
| 20260830183344 | 20 | 106 | 3.2 | 4.8 | 0.00 | 0.33 | 0.33 | 91 | 1014.2 |
| 20260830182843 | 20 | 152 | 0.0 | 6.4 | 0.00 | 0.33 | 0.33 | 91 | 1014.1 |
| 20260830182344 | 20 | 104 | 1.6 | 6.4 | 0.00 | 0.33 | 0.33 | 90 | 1014.3 |
| 20260830181843 | 20 | 172 | 3.2 | 6.4 | 0.00 | 0.33 | 0.33 | 90 | 1014.2 |
| 20260830181344 | 20 | 224 | 1.6 | 8.0 | 0.00 | 0.33 | 0.33 | 90 | 1014.1 |
| 20260830180843 | 20 | 145 | 1.6 | 8.0 | 0.00 | 0.33 | 0.33 | 91 | 1014.2 |
| 20260830180344 | 21 | 148 | 3.2 | 6.4 | 0.00 | 0.33 | 0.33 | 91 | 1014.1 |
| 20260830180112 | 21 | 144 | 1.6 | 6.4 | 0.00 | 0.33 | 0.33 | 91 | 1014.1 |
| 20260830175342 | 20 | 175 | 3.2 | 8.0 | 0.00 | 0.33 | 0.33 | 93 | 1014.1 |
| 20260830174841 | 20 | 137 | 1.6 | 8.0 | 0.00 | 0.33 | 0.33 | 93 | 1014.1 |
| 20260830174337 | 20 | 196 | 3.2 | 6.4 | 0.00 | 0.33 | 0.33 | 93 | 1014.2 |
| 20260830173835 | 20 | 166 | 0.0 | 6.4 | 0.00 | 0.33 | 0.33 | 93 | 1014.1 |
| 20260830173334 | 20 | 186 | 1.6 | 8.0 | 0.00 | 0.33 | 0.33 | 93 | 1014.2 |
| 20260830172834 | 20 | 206 | 3.2 | 8.0 | 0.00 | 0.33 | 0.33 | 93 | 1014.2 |
| 20260830172334 | 20 | 189 | 4.8 | 8.0 | 0.00 | 0.33 | 0.33 | 93 | 1014.2 |
| 20260830171833 | 20 | 159 | 1.6 | 6.4 | 0.00 | 0.33 | 0.33 | 93 | 1014.1 |
| 20260830171818 | 20 | 171 | 1.6 | 4.8 | 0.00 | 0.33 | 0.33 | 93 | 1014.1 |
| 20260830170833 | 20 | 248 | 1.6 | 6.4 | 0.00 | 0.33 | 0.33 | 93 | 1014.2 |
| 20260830170331 | 20 | 204 | 1.6 | 6.4 | 0.00 | 0.33 | 0.33 | 93 | 1014.1 |
| 20260830165834 | 20 | 128 | 1.6 | 9.7 | 0.00 | 0.33 | 0.33 | 93 | 1014.1 |
| 20260830165332 | 20 | 188 | 3.2 | 11.3 | 0.00 | 0.33 | 0.33 | 93 | 1014.1 |
| 20260830164832 | 20 | 175 | 4.8 | 11.3 | 0.00 | 0.33 | 0.33 | 93 | 1014.1 |
| 20260830164331 | 20 | 149 | 1.6 | 9.7 | 0.00 | 0.33 | 0.33 | 96 | 1014.1 |
| 20260830164119 | 19 | 204 | 3.2 | 8.0 | 0.00 | 0.33 | 0.33 | 95 | 1014.2 |
| 20260830162914 | 19 | 157 | 3.2 | 6.4 | 0.00 | 0.33 | 0.33 | 95 | 1014.5 |
| 20260830162333 | 19 | 159 | 1.6 | 6.4 | 0.00 | 0.33 | 0.33 | 95 | 1014.5 |
| 20260830161831 | 18 | 161 | 3.2 | 8.0 | 0.00 | 0.33 | 0.33 | 95 | 1014.6 |
| 20260830161640 | 18 | 189 | 1.6 | 8.0 | 0.00 | 0.33 | 0.33 | 95 | 1014.7 |
| 20260830160830 | 18 | 159 | 1.6 | 8.0 | 0.00 | 0.33 | 0.33 | 95 | 1014.7 |
| 20260830160458 | 18 | 151 | 1.6 | 9.7 | 0.00 | 0.33 | 0.33 | 95 | 1014.5 |
| 20260830155349 | 18 | 200 | 1.6 | 6.4 | 0.00 | 0.33 | 0.33 | 96 | 1014.6 |
| 20260830154829 | 18 | 127 | 1.6 | 8.0 | 0.00 | 0.33 | 0.33 | 96 | 1014.5 |
| 20260830154330 | 18 | 175 | 3.2 | 8.0 | 0.00 | 0.33 | 0.33 | 96 | 1014.6 |
| 20260830154100 | 18 | 197 | 3.2 | 6.4 | 0.00 | 0.33 | 0.33 | 96 | 1014.7 |
| 20260830153326 | 18 | 182 | 1.6 | 9.7 | 0.00 | 0.33 | 0.33 | 96 | 1014.6 |
| 20260830152825 | 18 | 152 | 4.8 | 9.7 | 0.00 | 0.33 | 0.33 | 96 | 1014.7 |
| 20260830152324 | 18 | 140 | 3.2 | 14.5 | 0.00 | 0.33 | 0.33 | 96 | 1014.7 |
| 20260830151900 | 18 | 214 | 3.2 | 14.5 | 0.00 | 0.33 | 0.33 | 96 | 1014.8 |
| 20260830151322 | 18 | 144 | 3.2 | 9.7 | 0.00 | 0.33 | 0.33 | 96 | 1014.8 |
| 20260830150823 | 18 | 223 | 1.6 | 9.7 | 0.00 | 0.33 | 0.33 | 97 | 1014.7 |
| 20260830150322 | 18 | 169 | 4.8 | 9.7 | 0.00 | 0.33 | 0.33 | 97 | 1014.7 |
| 20260830150047 | 18 | 175 | 4.8 | 9.7 | 0.00 | 0.33 | 0.33 | 96 | 1014.7 |
| 20260830145556 | 18 | 190 | 3.2 | 11.3 | 0.00 | 0.33 | 0.33 | 97 | 1014.8 |
| 20260830144822 | 18 | 227 | 6.4 | 11.3 | 0.00 | 0.33 | 0.33 | 97 | 1014.7 |
| 20260830144327 | 18 | 162 | 3.2 | 9.7 | 0.00 | 0.33 | 0.33 | 97 | 1014.7 |
| 20260830143823 | 18 | 157 | 4.8 | 11.3 | 0.00 | 0.33 | 0.33 | 97 | 1014.5 |
| 20260830143353 | 18 | 158 | 4.8 | 11.3 | 0.00 | 0.33 | 0.33 | 97 | 1014.5 |
| 20260830142822 | 18 | 203 | 6.4 | 11.3 | 0.00 | 0.33 | 0.33 | 97 | 1014.5 |
| 20260830142321 | 18 | 142 | 3.2 | 9.7 | 0.03 | 0.33 | 0.33 | 97 | 1014.5 |
| 20260830141815 | 17 | 179 | 1.6 | 11.3 | 0.03 | 0.33 | 0.33 | 97 | 1014.5 |
| 20260830141317 | 17 | 278 | 3.2 | 17.7 | 0.03 | 0.33 | 0.33 | 96 | 1014.6 |
| 20260830140815 | 17 | 236 | 4.8 | 17.7 | 0.03 | 0.33 | 0.33 | 96 | 1014.5 |
| 20260830140314 | 17 | 197 | 3.2 | 17.7 | 0.03 | 0.33 | 0.33 | 96 | 1014.5 |
| 20260830135813 | 17 | 157 | 4.8 | 16.1 | 0.03 | 0.30 | 0.33 | 96 | 1014.6 |
| 20260830135312 | 17 | 192 | 6.4 | 16.1 | 0.03 | 0.30 | 0.33 | 96 | 1014.5 |
| 20260830134812 | 17 | 162 | 8.0 | 16.1 | 0.03 | 0.30 | 0.33 | 96 | 1014.7 |
| 20260830134310 | 17 | 141 | 4.8 | 16.1 | 0.03 | 0.30 | 0.33 | 96 | 1014.6 |
| 20260830133810 | 17 | 144 | 6.4 | 14.5 | 0.03 | 0.30 | 0.33 | 96 | 1014.7 |
| 20260830133309 | 17 | 157 | 6.4 | 14.5 | 0.03 | 0.30 | 0.33 | 96 | 1014.8 |
| 20260830133043 | 17 | 158 | 3.2 | 16.1 | 0.03 | 0.30 | 0.33 | 96 | 1014.9 |
| 20260830132310 | 17 | 171 | 4.8 | 16.1 | 0.03 | 0.30 | 0.30 | 96 | 1014.9 |
| 20260830131809 | 17 | 124 | 6.4 | 14.5 | 0.03 | 0.30 | 0.30 | 96 | 1015.1 |
| 20260830131309 | 17 | 244 | 3.2 | 14.5 | 0.03 | 0.30 | 0.30 | 96 | 1015.2 |
| 20260830130809 | 17 | 152 | 3.2 | 14.5 | 0.03 | 0.30 | 0.30 | 96 | 1015.1 |
| 20260830130307 | 17 | 157 | 3.2 | 14.5 | 0.03 | 0.30 | 0.30 | 96 | 1015.1 |
| 20260830125805 | 17 | 196 | 3.2 | 14.5 | 0.03 | 0.28 | 0.30 | 96 | 1014.9 |
| 20260830125306 | 17 | 162 | 4.8 | 14.5 | 0.03 | 0.28 | 0.30 | 96 | 1014.9 |
| 20260830124809 | 17 | 168 | 3.2 | 14.5 | 0.03 | 0.28 | 0.30 | 96 | 1014.9 |
| 20260830124306 | 17 | 103 | 6.4 | 14.5 | 0.03 | 0.28 | 0.30 | 96 | 1014.8 |
| 20260830123805 | 17 | 168 | 4.8 | 14.5 | 0.03 | 0.28 | 0.30 | 96 | 1014.9 |
| 20260830123304 | 17 | 185 | 6.4 | 14.5 | 0.03 | 0.28 | 0.30 | 96 | 1014.9 |
| 20260830122803 | 17 | 161 | 3.2 | 14.5 | 0.03 | 0.28 | 0.28 | 96 | 1014.9 |
| 20260830122306 | 17 | 182 | 4.8 | 16.1 | 0.00 | 0.28 | 0.28 | 96 | 1014.9 |
| 20260830121803 | 17 | 155 | 8.0 | 16.1 | 0.03 | 0.28 | 0.28 | 96 | 1014.9 |
| 20260830121304 | 17 | 179 | 6.4 | 14.5 | 0.03 | 0.28 | 0.28 | 96 | 1014.9 |
| 20260830120752 | 17 | 186 | 4.8 | 14.5 | 0.05 | 0.28 | 0.28 | 96 | 1014.9 |
| 20260830120251 | 17 | 189 | 4.8 | 14.5 | 0.05 | 0.28 | 0.28 | 96 | 1014.9 |
| 20260830115754 | 17 | 190 | 4.8 | 11.3 | 0.05 | 0.23 | 0.28 | 96 | 1015.2 |
| 20260830115309 | 17 | 197 | 4.8 | 11.3 | 0.05 | 0.23 | 0.28 | 96 | 1015.1 |
| 20260830115115 | 17 | 175 | 3.2 | 9.7 | 0.05 | 0.23 | 0.28 | 96 | 1015.2 |
| 20260830114525 | 17 | 166 | 6.4 | 9.7 | 0.05 | 0.23 | 0.28 | 96 | 1014.9 |
| 20260830113749 | 17 | 140 | 3.2 | 9.7 | 0.05 | 0.23 | 0.28 | 96 | 1014.8 |
| 20260830113249 | 17 | 111 | 3.2 | 8.0 | 0.05 | 0.23 | 0.28 | 96 | 1014.8 |
| 20260830112749 | 17 | 104 | 4.8 | 8.0 | 0.05 | 0.23 | 0.28 | 96 | 1014.9 |
| 20260830112513 | 17 | 176 | 1.6 | 6.4 | 0.05 | 0.23 | 0.28 | 96 | 1014.8 |
| 20260830111749 | 17 | 200 | 3.2 | 6.4 | 0.03 | 0.23 | 0.25 | 96 | 1014.9 |
| 20260830111246 | 17 | 195 | 3.2 | 11.3 | 0.03 | 0.23 | 0.25 | 96 | 1015.1 |
| 20260830110744 | 17 | 230 | 3.2 | 11.3 | 0.00 | 0.23 | 0.23 | 96 | 1015.1 |
| 20260830110513 | 17 | 250 | 3.2 | 9.7 | 0.00 | 0.23 | 0.23 | 96 | 1015.2 |